星链-36974(STARLINK-36974)

导读

STARLINK-36974(NORAD编号68272)是SpaceX星链(Starlink)低轨互联网星座中的一颗卫星,隶属于SpaceX全球低轨卫星互联网项目。星链计划旨在打造覆盖全球的天基通信系统,填补偏远地区网络空白。该卫星运行于近地轨道,当前SpaceX计划于2026年将数千颗星链卫星轨道从550公里降至480公里,以提升太空安全,减少碰撞风险与太空垃圾产生。作为星链星座的组成部分,它为全球用户提供低时延宽带互联网接入服务,适配偏远地区、航空、海洋等特殊场景联网需求,是星链大规模星座组网中的单元之一。

Basic Information
目录编号:
68272
目录名称:
STARLINK-36974
国际标识:
2026-055L
轨道中心:
EARTH
卫星名称:
星链-36974
卫星全名:
星链-36974(STARLINK-36974)
卫星状态:
在轨 (已飞行169 天)
发射日期:
2026-03-19 UTC
国别 :
美国 (US)
星等 :
--
Orbit Information
数据来源 国际轨道数据 AOE轨道数据
星历时间 2026-09-03T15:47:07+0800
22小时前
查看轨道信息
2026-09-01T10:00:00+0800
3天前
查看轨道信息
半长轴 6840.818km 6840.832km
偏心率 0.000165 0.0001014
轨道倾角 53.158° 53.157°
近地点辐角 74.044° 118.758°
升交点赤经 212.359° 222.836°
平近点角 286.075° 95.255°
近地点 461.552km 462.001km
远地点 463.81km 463.389km
周期 93.847分钟 93.848分钟
每日圈数 15.344077 15.344031
Detailed Information
固有亮度:
5
最大亮度:
2.5
卫星平台:
Starlink V1.0
覆盖范围:
全球
运营商:
太空探索技术公司
运营商所在国:
美国
制造商(研发单位):
太空探索技术公司
制造商所在国:
美国
使用方式:
暂无
Satellite Introduction
Starlink 计划是 SpaceX 推出的全球卫星互联网项目,通过发射低轨道卫星,为全球尤其是偏远地区提供高速、低延迟的互联网服务。自 2019 年起,Starlink 已部署数千颗卫星,旨在缩小全球数字鸿沟,推动互联网普及。该项目还为军事、航空等行业提供通信支持,带来广泛经济效益。
2D Orbit Map
3D Orbit Map
Orbit Altitude Analysis Chart
Orbit Inclination Analysis Chart
Orbit Comprehensive Analysis Chart
View Comprehensive Chart
Conjunction Data List
Event ID Objects TCA Miss Dist (km) Collision Risk Probability Collision Risk Index (CRI) Action
CDM_260827-194406-606006-827221
2026-08-27T
19:44:42+0000
1.697 km
极远距离
2.847019E-6 低风险 0.44
CDM_260827-211806-606006-827221
2026-08-27T
21:18:29+0000
2.603 km
极远距离
1.081995E-6 低风险 0.36
CDM_260828-024606-606006-827221
2026-08-28T
02:46:44+0000
2.928 km
极远距离
9.201914E-7 极低风险 0.34